KG5VSR Weather Reports


time (UTC)temp
F
wind
direction
speed
knots
gust
knots
rain 1hr
in
rain 24hr
in
rain mn
in
humidity
%
barometer
mb
20260903034224 84 25 1.7 2.6 0.00 0.00 0.00 72 1013.7
20260903031222 85 23 1.7 2.6 0.00 0.00 0.00 70 1013.7
20260903024222 86 56 1.7 4.3 0.00 0.00 0.00 67 1013.6
20260903021219 88 6 0.9 1.7 0.00 0.00 0.00 64 1013.2
20260903014217 90 49 0.0 0.0 0.00 0.00 0.00 60 1012.7
20260903011215 91 355 0.9 1.7 0.00 0.00 0.00 57 1012.1
20260903004214 93 150 1.7 1.7 0.00 0.00 0.00 56 1012.2
20260903001212 93 30 1.7 2.6 0.00 0.00 0.00 57 1012.0
20260902234211 92 358 0.9 0.9 0.00 0.00 0.00 59 1011.9
20260902231211 91 237 0.9 0.9 0.00 0.00 0.00 63 1011.8
20260902224206 98 65 2.6 6.1 0.00 0.00 0.00 51 1011.6
20260902221206 99 93 2.6 4.3 0.00 0.00 0.00 45 1011.3
20260902214204 98 128 2.6 5.2 0.00 0.00 0.00 46 1011.7
20260902211159 99 69 2.6 4.3 0.00 0.00 0.00 45 1011.9
20260902204155 100 322 6.1 7.0 0.00 0.00 0.00 45 1012.3
20260902201156 98 47 2.6 4.3 0.00 0.00 0.00 46 1012.8
20260902194154 100 325 2.6 4.3 0.00 0.00 0.00 45 1013.5
20260902191154 97 330 0.9 1.7 0.00 0.00 0.00 50 1013.9
20260902184150 97 3 0.9 0.9 0.00 0.00 0.00 50 1014.7
20260902181147 96 39 1.7 2.6 0.00 0.00 0.00 55 1015.1
20260902174142 95 19 3.5 5.2 0.00 0.00 0.00 56 1015.6
20260902171141 93 303 0.0 0.9 0.00 0.00 0.00 59 1016.3
20260902164138 92 333 0.9 1.7 0.00 0.00 0.00 62 1016.7
20260902161135 91 339 0.9 0.9 0.00 0.00 0.00 62 1016.9
20260902154131 91 229 1.7 2.6 0.00 0.00 0.00 64 1016.6
20260902151130 88 241 0.9 1.7 0.00 0.00 0.00 69 1016.6
20260902144130 86 170 0.9 0.9 0.00 0.00 0.00 72 1016.7
20260902141129 85 44 1.7 1.7 0.00 0.00 0.00 74 1016.5
20260902134127 84 190 0.9 0.9 0.00 0.00 0.00 76 1016.0
20260902131127 83 58 0.9 0.9 0.00 0.00 0.00 75 1016.3
20260902124122 81 47 0.9 1.7 0.00 0.00 0.00 79 1016.1
20260902121121 77 1 0.0 0.0 0.00 0.00 0.00 85 1016.1
20260902114117 77 359 0.0 0.0 0.00 0.00 0.00 85 1016.1
20260902111114 78 171 0.0 0.0 0.00 0.00 0.00 85 1016.0
20260902104114 78 172 0.0 0.0 0.00 0.00 0.00 84 1015.9
20260902101114 79 172 0.0 0.0 0.00 0.00 0.00 81 1015.9
20260902094112 79 172 0.0 0.0 0.00 0.00 0.00 80 1015.8
20260902091110 80 172 0.0 0.0 0.00 0.00 0.00 78 1015.9
20260902084110 82 172 0.0 0.0 0.00 0.00 0.00 75 1015.6
20260902081110 82 261 0.0 0.0 0.00 0.00 0.00 74 1015.6
20260902074105 84 144 1.7 1.7 0.00 0.00 0.00 71 1015.9
20260902071102 84 189 0.9 1.7 0.00 0.00 0.00 70 1015.6
20260902064101 85 230 0.0 0.9 0.00 0.00 0.00 69 1015.6
20260902061058 85 126 1.7 2.6 0.00 0.00 0.00 69 1015.9
20260902054055 86 189 1.7 2.6 0.00 0.00 0.00 70 1015.6
20260902051051 86 157 2.6 5.2 0.00 0.00 0.00 69 1015.7
20260902044046 87 191 1.7 1.7 0.00 0.00 0.00 67 1015.8
20260902041043 88 155 0.9 0.9 0.00 0.00 0.00 64 1015.6